This demonstration page uses our WeatherBlox Daily Observations layout. Learn more.

Left ArrowRight Arrow

31.84235, -102.49876

Hourly Observations for March 11, 2015

Temp ( °F °C ) Dew Point ( °F °C ) Humidity (%) Winds ( mph kmh ) Pressure ( in mb ) Visibility ( mi km ) Precip ( " mm )
12:53 am 00:53 Clear 51 10.6 39 3.9 64 64 NNE 8 13 30.11 1020 10 16 0.00 0.00
1:53 am 01:53 Clear 50 10 39 3.9 66 66 NE 8 13 30.11 1020 10 16 0.00 0.00
2:53 am 02:53 Clear 48 8.9 39 3.9 71 71 ESE 9 15 30.12 1020 10 16 0.00 0.00
3:53 am 03:53 Clear 47 8.3 40 4.4 77 77 SE 8 13 30.13 1020 10 16 0.00 0.00
4:53 am 04:53 Clear 49 9.4 40 4.4 71 71 SSE 5 7 30.11 1020 10 16 0.00 0.00
5:53 am 05:53 Clear 45 7.2 39 3.9 80 80 E 7 11 30.13 1020 10 16 0.00 0.00
6:53 am 06:53 Clear 42 5.6 38 3.3 85 85 ENE 9 15 30.14 1021 10 16 0.00 0.00
7:53 am 07:53 Clear 42 5.6 38 3.3 85 85 E 6 9 30.17 1022 9 14 0.00 0.00
8:53 am 08:53 Sunny 45 7.2 41 5 86 86 NE 5 7 30.19 1022 8 13 0.00 0.00
9:53 am 09:53 Sunny 54 12.2 45 7.2 72 72 N 6 9 30.21 1023 10 16 0.00 0.00
10:53 am 10:53 Sunny 60 15.6 45 7.2 58 58 NW 3 6 30.22 1023 10 16 0.00 0.00
11:53 am 11:53 Sunny 64 17.8 43 6.1 46 46 Calm 30.22 1024 10 16 0.00 0.00
12:53 pm 12:53 Mostly Sunny 66 18.9 41 5 40 40 NE 9 15 30.22 1023 10 16 0.00 0.00
1:53 pm 13:53 Sunny 67 19.4 40 4.4 37 37 E 8 13 30.20 1023 10 16 0.00 0.00
2:53 pm 14:53 Mostly Cloudy 69 20.6 40 4.4 35 35 E 12 19 30.19 1022 10 16 0.00 0.00
3:53 pm 15:53 Sunny 70 21.1 38 3.3 31 31 E 12 19 30.15 1021 10 16 0.00 0.00
4:53 pm 16:53 Sunny 69 20.6 37 2.8 31 31 VRB 7 11 30.14 1021 10 16 0.00 0.00
5:53 pm 17:53 Sunny 70 21.1 36 2.2 29 29 NE 10 17 30.14 1021 10 16 0.00 0.00
6:53 pm 18:53 Sunny 68 20 33 0.6 27 27 ENE 7 11 30.14 1021 10 16 0.00 0.00
7:53 pm 19:53 Sunny 61 16.1 35 1.7 38 38 ENE 7 11 30.16 1021 10 16 0.00 0.00
8:53 pm 20:53 Clear 56 13.3 35 1.7 46 46 E 9 15 30.17 1022 10 16 0.00 0.00
9:53 pm 21:53 Clear 56 13.3 31 -0.6 39 39 E 10 17 30.18 1022 10 16 0.00 0.00
10:53 pm 22:53 Clear 54 12.2 32 0 43 43 E 10 17 30.19 1022 10 16 0.00 0.00
11:53 pm 23:53 Clear 51 10.6 32 0 48 48 E 10 17 30.19 1023 10 16 0.00 0.00

Powered by AerisWeather